Time,TemperatureF,DewpointF,PressureIn,WindDirection,WindDirectionDegrees,WindSpeedMPH,WindSpeedGustMPH,Humidity,HourlyPrecipIn,Conditions,Clouds,dailyrainin,SoftwareType,DateUTC
2013-05-15 16:41:00,55.9,52.0,29.78,South,176,6.0,8.0,85,0.03,,,0.03,weatherlink.com 1.10,2013-05-15 20:41:00,
2013-05-15 16:56:00,55.5,52.0,29.75,WSW,243,4.0,10.0,88,0.06,,,0.08,weatherlink.com 1.10,2013-05-15 20:56:00,
2013-05-15 17:26:00,54.8,52.0,29.72,South,191,5.0,6.0,89,0.06,,,0.09,weatherlink.com 1.10,2013-05-15 21:26:00,
2013-05-15 17:56:00,54.8,51.0,29.72,SSE,159,0.0,5.0,88,0.02,,,0.09,weatherlink.com 1.10,2013-05-15 21:56:00,
2013-05-15 18:11:00,54.3,52.0,29.72,SSE,159,0.0,3.0,90,0.00,,,0.09,weatherlink.com 1.10,2013-05-15 22:11:00,
2013-05-15 18:26:00,54.4,51.0,29.71,South,181,4.0,8.0,89,0.00,,,0.09,weatherlink.com 1.10,2013-05-15 22:26:00,
2013-05-15 18:41:00,54.4,51.0,29.70,South,171,4.0,8.0,88,0.00,,,0.09,weatherlink.com 1.10,2013-05-15 22:41:00,
2013-05-15 18:57:00,54.2,51.0,29.70,SSW,194,2.0,4.0,88,0.00,,,0.09,weatherlink.com 1.10,2013-05-15 22:57:00,
2013-05-15 19:11:00,54.2,51.0,29.71,SSW,195,3.0,4.0,90,0.00,,,0.09,weatherlink.com 1.10,2013-05-15 23:11:00,
2013-05-15 19:26:00,54.1,51.0,29.70,SW,220,2.0,4.0,90,0.00,,,0.09,weatherlink.com 1.10,2013-05-15 23:26:00,
2013-05-15 19:41:00,54.1,51.0,29.70,South,185,3.0,6.0,90,0.00,,,0.09,weatherlink.com 1.10,2013-05-15 23:41:00,
2013-05-15 19:57:00,54.3,51.0,29.69,SSW,194,1.0,5.0,89,0.00,,,0.09,weatherlink.com 1.10,2013-05-15 23:57:00,
2013-05-15 20:12:00,54.4,51.0,29.68,SSW,194,3.0,4.0,89,0.00,,,0.09,weatherlink.com 1.10,2013-05-16 00:12:00,
2013-05-15 20:27:00,54.4,51.0,29.68,SSW,194,0.0,3.0,89,0.00,,,0.09,weatherlink.com 1.10,2013-05-16 00:27:00,
2013-05-15 20:42:00,54.5,52.0,29.67,SSW,194,0.0,2.0,90,0.00,,,0.09,weatherlink.com 1.10,2013-05-16 00:42:00,
2013-05-15 20:57:00,54.6,52.0,29.67,SSW,194,0.0,2.0,91,0.00,,,0.09,weatherlink.com 1.10,2013-05-16 00:57:00,
2013-05-15 21:12:00,54.3,52.0,29.67,SSW,194,0.0,2.0,92,0.00,,,0.09,weatherlink.com 1.10,2013-05-16 01:12:00,
2013-05-15 21:27:00,54.3,52.0,29.67,SSW,194,1.0,2.0,93,0.00,,,0.09,weatherlink.com 1.10,2013-05-16 01:27:00,
2013-05-15 21:57:00,54.4,53.0,29.67,SSW,194,0.0,2.0,94,0.00,,,0.09,weatherlink.com 1.10,2013-05-16 01:57:00,
2013-05-15 22:12:00,54.4,53.0,29.67,SSW,194,0.0,0.0,94,0.00,,,0.09,weatherlink.com 1.10,2013-05-16 02:12:00,
2013-05-15 22:27:00,54.2,53.0,29.67,SSW,194,2.0,4.0,94,0.00,,,0.09,weatherlink.com 1.10,2013-05-16 02:27:00,
2013-05-15 22:57:00,54.0,53.0,29.65,NNE,23,0.0,3.0,95,0.00,,,0.09,weatherlink.com 1.10,2013-05-16 02:57:00,
2013-05-15 23:12:00,54.0,53.0,29.65,NNE,23,0.0,0.0,95,0.00,,,0.09,weatherlink.com 1.10,2013-05-16 03:12:00,
2013-05-15 23:27:00,53.5,52.0,29.64,NNE,23,0.0,0.0,95,0.00,,,0.09,weatherlink.com 1.10,2013-05-16 03:27:00,
2013-05-15 23:57:00,52.2,51.0,29.64,NNE,23,0.0,2.0,95,0.00,,,0.09,weatherlink.com 1.10,2013-05-16 03:57:00,